Location: Unspecified
(29.9680°N, 0.0000°E)
Time: 09:05:30
(UTC+00:00)

A-11 Canister half - Pass Details

Date: 27 June 2019
Orbit: 1526 x 1682 km, 47.3° (Epoch: 24 August)

Event Time Altitude Azimuth Distance (km) Brightness Sun altitude
Rises 00:51:24 0° 204° (SSW) 4,846 - -35.4°
Reaches altitude 10° 00:54:47 10° 197° (SSW) 3,840 - -35.3°
Maximum altitude 01:03:44 42° 130° (SE) 2,127 - -34.7°
Exits shadow 01:04:23 42° 121° (ESE) 2,137 9.5 -34.7°
Drops below altitude 10° 01:12:25 10° 64° (ENE) 3,739 11.5 -34.1°
Sets 01:15:39 0° 57° (ENE) 4,708 12.2 -33.9°
